Weather History for KAKO - November, 2011

Change the Weather History Date:

Monday, November 28, 2011

  Actual Average Record
Temperature  
Mean Temperature 47 °F 32 °F  
Max Temperature 63 °F 43 °F 68 °F (1986)
Min Temperature 30 °F 20 °F -8 °F (1976)
Degree Days  
Heating Degree Days 18    
Month to date heating degree days 739  
Cooling Degree Days 0    
Month to date cooling degree days 0  
Moisture  
Dew Point 17 °F    
Average Humidity 39    
Maximum Humidity 64    
Minimum Humidity 14    
Precipitation  
Precipitation 0.00 in 0.02 in 0.19 in (1942)
Month to date precipitation 0.26 0.55  
Year to date precipitation 16.31  
Sea Level Pressure  
Sea Level Pressure 30.18 in    
Wind  
Wind Speed 15 mph (NW)    
Max Wind Speed 37 mph    
Max Gust Speed 44 mph    
Visibility 10 miles    
Events      
T = Trace of Precipitation, MM = Missing Value Source: NWS Daily Summary

Daily Weather History Graph

Daily Weather History Graph

Search for Another Location

Airport or City:

Trip Planner

Search our weather history database for the weather conditions in past years. The results will help you decide how hot, cold, wet, or windy it might be!

Date:

Astronomy

Nov. 28, 2011 Rise Set
Actual Time 6:52 AM MST 4:28 PM MST
Civil Twilight 6:22 AM MST 4:58 PM MST
Nautical Twilight 5:49 AM MST 5:32 PM MST
Astronomical Twilight 5:16 AM MST 6:04 PM MST
Moon 10:03 AM MST (11/28) 8:18 PM MST (11/28)
Length of Visible Light 10h 35m
Length of Day
9h 35m
Waxing Crescent, 16% of the Moon is Illuminated
Nov 28
Waxing Crescent
Dec 2
First Quarter
Dec 10
Full
Dec 17
Last Quarter
Dec 24
New

Hourly Weather History & Observations

Time (MST) Temp. Windchill Dew Point Humidity Pressure Visibility Wind Dir Wind Speed Gust Speed Precip Events Conditions
12:53 AM 36.0 °F 27.1 °F 12.9 °F 39% 30.10 in 10.0 mi SW 13.8 mph - N/A   Clear
1:53 AM 36.0 °F 29.6 °F 12.9 °F 39% 30.09 in 10.0 mi WSW 8.1 mph - N/A   Clear
2:53 AM 37.0 °F 28.1 °F 12.9 °F 37% 30.07 in 10.0 mi WSW 15.0 mph - N/A   Clear
3:53 AM 36.0 °F 26.3 °F 12.9 °F 39% 30.09 in 10.0 mi WSW 16.1 mph - N/A   Clear
4:53 AM 34.0 °F 25.0 °F 12.9 °F 42% 30.10 in 10.0 mi West 12.7 mph - N/A   Clear
5:53 AM 33.1 °F 22.2 °F 14.0 °F 46% 30.13 in 10.0 mi West 17.3 mph - N/A   Clear
6:53 AM 30.9 °F 21.2 °F 14.0 °F 50% 30.14 in 10.0 mi West 12.7 mph - N/A   Clear
7:53 AM 37.0 °F 29.8 °F 14.0 °F 39% 30.14 in 10.0 mi West 10.4 mph - N/A   Clear
8:53 AM 45.0 °F 38.9 °F 15.1 °F 30% 30.13 in 10.0 mi West 12.7 mph - N/A   Clear
9:53 AM 53.1 °F - 15.1 °F 22% 30.12 in 10.0 mi WNW 13.8 mph - N/A   Clear
10:53 AM 59.0 °F - 12.9 °F 16% 30.10 in 10.0 mi WNW 13.8 mph - N/A   Clear
11:53 AM 62.1 °F - 14.0 °F 15% 30.07 in 10.0 mi NW 26.5 mph 33.4 mph N/A   Clear
12:53 PM 61.0 °F - 16.0 °F 17% 30.08 in 10.0 mi NNW 29.9 mph 40.3 mph N/A   Clear
1:53 PM 57.0 °F - 18.0 °F 22% 30.13 in 10.0 mi NNE 35.7 mph 42.6 mph N/A   Clear
2:53 PM 55.9 °F - 19.0 °F 24% 30.16 in 10.0 mi North 26.5 mph 33.4 mph N/A   Clear
3:53 PM 52.0 °F - 19.9 °F 28% 30.22 in 10.0 mi NNE 19.6 mph - N/A   Clear
4:53 PM 44.1 °F 37.1 °F 21.0 °F 40% 30.27 in 10.0 mi NE 15.0 mph - N/A   Clear
5:53 PM 43.0 °F 36.0 °F 23.0 °F 45% 30.30 in 10.0 mi NE 13.8 mph - N/A   Clear
6:53 PM 41.0 °F 35.8 °F 24.1 °F 51% 30.35 in 10.0 mi NE 8.1 mph - N/A   Clear
7:53 PM 34.0 °F 27.2 °F 21.9 °F 61% 30.37 in 10.0 mi NNE 8.1 mph - N/A   Clear
8:53 PM 33.1 °F 25.5 °F 21.9 °F 64% 30.38 in 10.0 mi NNE 9.2 mph - N/A   Clear
9:53 PM 33.1 °F 26.9 °F 21.9 °F 64% 30.36 in 10.0 mi North 6.9 mph - N/A   Clear
10:53 PM 34.0 °F 28.8 °F 23.0 °F 64% 30.33 in 10.0 mi North 5.8 mph - N/A   Clear